Weather History for KINJ - September, 2013

Change the Weather History Date:

Friday, September 13, 2013

  Actual Average (KACT) Record (KACT)
Temperature  
Mean Temperature 84 °F 79 °F  
Max Temperature 98 °F 91 °F 107 °F (2011)
Min Temperature 71 °F 67 °F 52 °F (1902)
Degree Days  
Heating Degree Days 0 0  
Month to date heating degree days 0  
Since 1 July heating degree days 0  
Cooling Degree Days 20 14  
Month to date cooling degree days 207  
Year to date cooling degree days 2402  
Growing Degree Days 34 (Base 50)    
Moisture  
Dew Point 60 °F    
Average Humidity 43    
Maximum Humidity 64    
Minimum Humidity 26    
Precipitation  
Precipitation 0.00 in 0.10 in 2.06 in (1923)
Month to date precipitation 1.32  
Year to date precipitation 23.48  
Sea Level Pressure  
Sea Level Pressure 29.92 in    
Wind  
Wind Speed 2 mph (ENE)    
Max Wind Speed 13 mph    
Max Gust Speed 24 mph    
Visibility 10 miles    
Events      
T = Trace of Precipitation, MM = Missing Value Source: NWS Daily Summary

Daily Weather History Graph

Daily Weather History Graph

Search for Another Location

Airport or City:

Trip Planner

Search our weather history database for the weather conditions in past years. The results will help you decide how hot, cold, wet, or windy it might be!

Date:

Astronomy

Sep. 13, 2013 Rise Set
Actual Time 7:11 AM CDT 7:36 PM CDT
Civil Twilight 6:46 AM CDT 8:01 PM CDT
Nautical Twilight 6:17 AM CDT 8:29 PM CDT
Astronomical Twilight 5:48 AM CDT 8:59 PM CDT
Moon 3:12 PM CDT (9/13) 12:57 AM CDT (9/13)
Length of Visible Light 13h 14m
Length of Day
12h 25m
First Quarter, 61% of the Moon is Illuminated
Sep 13
First Quarter
Sep 19
Full
Sep 26
Last Quarter
Oct 4
New
Oct 11
First Quarter

Hourly Weather History & Observations

Time (CDT) Temp. Heat Index Dew Point Humidity Pressure Visibility Wind Dir Wind Speed Gust Speed Precip Events Conditions
12:15 AM 79.0 °F - 57.4 °F 47% 29.98 in 10.0 mi Calm Calm - N/A   Clear
12:35 AM 78.8 °F - 57.6 °F 48% 29.98 in 10.0 mi Calm Calm - N/A   Scattered Clouds
12:55 AM 79.7 °F - 58.3 °F 48% 29.97 in 10.0 mi Calm Calm - N/A   Scattered Clouds
1:15 AM 79.9 °F - 57.6 °F 46% 29.97 in 10.0 mi Calm Calm - N/A   Scattered Clouds
1:35 AM 79.7 °F - 57.4 °F 46% 29.97 in 10.0 mi Calm Calm - N/A   Scattered Clouds
1:55 AM 80.1 °F 80.8 °F 59.2 °F 49% 29.97 in 10.0 mi Calm Calm - N/A   Scattered Clouds
2:15 AM 79.3 °F - 58.1 °F 48% 29.97 in 10.0 mi Calm Calm - N/A   Scattered Clouds
2:35 AM 79.7 °F - 57.4 °F 46% 29.96 in 10.0 mi Calm Calm - N/A   Scattered Clouds
2:55 AM 78.1 °F - 55.6 °F 46% 29.96 in 10.0 mi Calm Calm - N/A   Scattered Clouds
3:15 AM 77.9 °F - 58.1 °F 50% 29.96 in 10.0 mi Calm Calm - N/A   Scattered Clouds
3:35 AM 78.4 °F - 57.9 °F 49% 29.95 in 10.0 mi Calm Calm - N/A   Clear
3:55 AM 75.4 °F - 58.1 °F 55% 29.96 in 10.0 mi Calm Calm - N/A   Clear
4:15 AM 77.0 °F - 58.8 °F 53% 29.96 in 10.0 mi East 5.8 mph - N/A   Clear
4:35 AM 77.0 °F - 59.2 °F 54% 29.96 in 10.0 mi ENE 5.8 mph - N/A   Clear
4:55 AM 76.3 °F - 59.4 °F 56% 29.96 in 10.0 mi East 3.5 mph - N/A   Clear
5:15 AM 75.4 °F - 59.0 °F 57% 29.95 in 10.0 mi Calm Calm - N/A   Clear
5:35 AM 75.4 °F - 59.2 °F 57% 29.96 in 10.0 mi Calm Calm - N/A   Clear
5:55 AM 75.2 °F - 58.8 °F 57% 29.96 in 10.0 mi Calm Calm - N/A   Clear
6:15 AM 73.2 °F - 56.3 °F 55% 29.96 in 10.0 mi Calm Calm - N/A   Clear
6:35 AM 72.7 °F - 57.9 °F 60% 29.96 in 10.0 mi Calm Calm - N/A   Clear
6:55 AM 72.0 °F - 57.6 °F 60% 29.96 in 10.0 mi Calm Calm - N/A   Clear
7:15 AM 71.6 °F - 56.7 °F 59% 29.97 in 10.0 mi Calm Calm - N/A   Scattered Clouds
7:35 AM 71.6 °F - 59.0 °F 64% 29.97 in 10.0 mi Calm Calm - N/A   Scattered Clouds
7:55 AM 72.5 °F - 59.5 °F 64% 29.97 in 10.0 mi Calm Calm - N/A   Clear
8:15 AM 74.7 °F - 61.0 °F 62% 29.97 in 10.0 mi Calm Calm - N/A   Scattered Clouds
8:35 AM 78.1 °F - 61.3 °F 56% 29.98 in 10.0 mi Calm Calm - N/A   Scattered Clouds
9:15 AM 82.0 °F 83.0 °F 62.4 °F 51% 29.98 in 10.0 mi Calm Calm - N/A   Unknown
9:35 AM 83.8 °F 84.5 °F 62.1 °F 48% 29.98 in 10.0 mi West 4.6 mph - N/A   Scattered Clouds
9:55 AM 85.6 °F 86.1 °F 61.9 °F 45% 29.98 in 10.0 mi NW 3.5 mph - N/A   Scattered Clouds
10:15 AM 86.9 °F 87.0 °F 61.5 °F 42% 29.98 in 10.0 mi WNW 4.6 mph - N/A   Clear
10:35 AM 88.3 °F 88.4 °F 61.5 °F 40% 29.98 in 10.0 mi West 5.8 mph - N/A   Clear
10:55 AM 90.0 °F 90.0 °F 61.0 °F 38% 29.98 in 10.0 mi NW 4.6 mph - N/A   Clear
11:15 AM 90.5 °F 90.1 °F 60.4 °F 36% 29.98 in 10.0 mi NW 5.8 mph - N/A   Clear
11:35 AM 91.0 °F 90.2 °F 59.2 °F 34% 29.97 in 10.0 mi Calm Calm - N/A   Clear
11:55 AM 93.2 °F 92.6 °F 59.2 °F 32% 29.97 in 10.0 mi NW 3.5 mph - N/A   Clear
12:15 PM 93.6 °F 92.7 °F 58.5 °F 31% 29.96 in 10.0 mi West 3.5 mph - N/A   Clear
12:35 PM 93.4 °F 92.8 °F 59.2 °F 32% 29.95 in 10.0 mi WNW 5.8 mph - N/A   Mostly Cloudy
12:55 PM 94.3 °F 93.7 °F 59.2 °F 31% 29.94 in 10.0 mi NNW 5.8 mph - N/A   Mostly Cloudy
1:15 PM 92.8 °F 91.7 °F 58.1 °F 31% 29.94 in 10.0 mi Calm Calm - N/A   Scattered Clouds
1:35 PM 93.6 °F 92.7 °F 58.5 °F 31% 29.93 in 10.0 mi ENE 6.9 mph - N/A   Scattered Clouds
1:55 PM 93.6 °F 92.7 °F 58.6 °F 31% 29.92 in 10.0 mi East 5.8 mph - N/A   Scattered Clouds
2:15 PM 93.0 °F 92.0 °F 58.6 °F 31% 29.91 in 10.0 mi Calm Calm - N/A   Scattered Clouds
2:35 PM 95.2 °F 94.7 °F 59.2 °F 30% 29.90 in 10.0 mi Calm Calm - N/A   Mostly Cloudy
2:55 PM 95.7 °F 95.1 °F 58.6 °F 29% 29.89 in 10.0 mi NNE 5.8 mph - N/A   Mostly Cloudy
3:15 PM 95.0 °F 94.4 °F 59.0 °F 30% 29.88 in 10.0 mi SSE 3.5 mph - N/A   Scattered Clouds
3:35 PM 95.4 °F 94.9 °F 59.2 °F 30% 29.87 in 10.0 mi ENE 5.8 mph - N/A   Clear
3:55 PM 96.8 °F 96.2 °F 58.6 °F 28% 29.85 in 10.0 mi ENE 4.6 mph - N/A   Clear
4:15 PM 96.8 °F 96.2 °F 59.0 °F 28% 29.85 in 10.0 mi SSW 5.8 mph - N/A   Clear
4:35 PM 96.8 °F 95.8 °F 57.9 °F 27% 29.84 in 10.0 mi South 5.8 mph - N/A   Clear
4:55 PM 98.2 °F 97.5 °F 57.9 °F 26% 29.84 in 10.0 mi SE 8.1 mph - N/A   Clear
5:15 PM 98.1 °F 97.2 °F 57.9 °F 26% 29.83 in 10.0 mi SE 8.1 mph - N/A   Clear
5:35 PM 97.2 °F 96.4 °F 57.9 °F 27% 29.83 in 10.0 mi ESE 4.6 mph - N/A   Scattered Clouds
5:55 PM 96.8 °F 95.8 °F 58.1 °F 27% 29.83 in 10.0 mi NNE 9.2 mph - N/A   Scattered Clouds
6:15 PM 94.3 °F 94.1 °F 60.4 °F 32% 29.83 in 10.0 mi NE 12.7 mph 24.2 mph N/A   Scattered Clouds
6:35 PM 93.4 °F 93.5 °F 60.8 °F 34% 29.83 in 10.0 mi NE 11.5 mph - N/A   Clear
6:55 PM 93.2 °F 93.3 °F 60.8 °F 34% 29.84 in 10.0 mi NE 9.2 mph - N/A   Clear
7:15 PM 92.3 °F 92.0 °F 60.4 °F 34% 29.84 in 10.0 mi NE 6.9 mph - N/A   Clear
7:35 PM 91.4 °F 91.0 °F 60.4 °F 35% 29.84 in 10.0 mi ENE 6.9 mph - N/A   Clear
7:55 PM 90.0 °F 90.0 °F 61.3 °F 38% 29.85 in 10.0 mi ENE 5.8 mph - N/A   Clear
8:15 PM 89.2 °F 89.6 °F 61.7 °F 40% 29.85 in 10.0 mi ENE 8.1 mph - N/A   Clear
8:35 PM 88.7 °F 88.8 °F 61.3 °F 40% 29.86 in 10.0 mi ENE 8.1 mph - N/A   Clear
8:55 PM 88.0 °F 88.1 °F 61.5 °F 41% 29.87 in 10.0 mi ENE 8.1 mph - N/A   Clear
9:15 PM 87.4 °F 87.7 °F 61.7 °F 42% 29.88 in 10.0 mi ENE 8.1 mph - N/A   Clear
9:35 PM 86.9 °F 87.2 °F 61.9 °F 43% 29.89 in 10.0 mi ENE 6.9 mph - N/A   Clear
9:55 PM 86.4 °F 86.8 °F 62.2 °F 44% 29.89 in 10.0 mi ENE 5.8 mph - N/A   Scattered Clouds
10:15 PM 86.0 °F 86.6 °F 62.2 °F 45% 29.89 in 10.0 mi ENE 5.8 mph - N/A   Scattered Clouds
10:35 PM 85.6 °F 86.3 °F 62.6 °F 46% 29.89 in 10.0 mi ENE 6.9 mph - N/A   Scattered Clouds
10:55 PM 85.5 °F 86.1 °F 62.6 °F 46% 29.90 in 10.0 mi East 8.1 mph - N/A   Scattered Clouds
11:15 PM 85.1 °F 85.9 °F 63.0 °F 47% 29.90 in 10.0 mi East 8.1 mph - N/A   Scattered Clouds
11:35 PM 84.7 °F 85.6 °F 63.1 °F 48% 29.90 in 10.0 mi East 8.1 mph - N/A   Clear
11:55 PM 84.2 °F 85.4 °F 63.5 °F 50% 29.90 in 10.0 mi East 8.1 mph - N/A   Clear